Location: Untermarchtal
(48.2403°N, 9.6117°E)
Time: 04:06:33
(UTC+02:00)

ISS - Pass Details

Date: 03 October 2020
Orbit: 418 x 420 km, 51.6° (Epoch: 20 October)

Event Time Altitude Azimuth Distance (km) Brightness Sun altitude
Rises 21:07:30 0° 288° (WNW) 2,369 1.6 -22.4°
Reaches altitude 10° 21:09:51 10° 274° (W) 1,502 0.1 -22.8°
Enters shadow 21:12:24 24° 226° (SW) 918 -1.8 -23.2°
